AirNav   Air Wisconsin pilot careers
 
 358 users online  

89D Kelleys Island Land Field Airport
Kelleys Island, Ohio, USA

GOING TO KELLEYS ISLAND?


FAA INFORMATION EFFECTIVE 04 JANUARY 2018

Location

FAA Identifier: 89D
Lat/Long: 41-36-11.4550N / 082-41-06.1950W
41-36.190917N / 082-41.103250W
41.6031819 / -82.6850542
(estimated)
Elevation: 598 ft. / 182.3 m (surveyed)
Variation: 07W (2000)
From city: 1 mile NE of KELLEYS ISLAND, OH
Time zone: UTC -5 (UTC -4 during Daylight Saving Time)
Zip code: 43438

Airport Operations

Airport use: Open to the public
Activation date: 05/1949
Control tower: no
ARTCC: CLEVELAND CENTER
FSS: CLEVELAND FLIGHT SERVICE STATION
NOTAMs facility: CLE (NOTAM-D service available)
Attendance: UNATNDD
Wind indicator: lighted
Segmented circle: no
Lights: SS-SR
Landing fee: yes

Airport Communications

CTAF: 122.9
WX AWOS-3 at PCW (10 nm SW): 118.775 (419-734-9955)

Nearby radio navigation aids

VOR radial/distance  VOR name  Freq  Var
DJBr307/27.7DRYER VOR/DME113.6005W
YQGr177/39.3WINDSOR VOR/DME113.8006W

 
NDB name  Hdg/Dist  Freq  Var  ID
PORT CLINTON065/9.742307WPCW .--. -.-. .--
GROSSE ILE152/36.541907WRYS .-. -.-- ...
TIFFIN043/38.726905WTII - .. ..

Airport Services

Parking: tiedowns
Airframe service: NONE
Powerplant service: NONE
Bottled oxygen: NONE
Bulk oxygen: NONE

Runway Information

Runway 9/27

Dimensions: 2203 x 50 ft. / 671 x 15 m
Surface: asphalt, in fair condition
Runway edge lights: low intensity
Runway edge markings: RY 09/27 NSTD MARKINGS; PAINT ROLLER SIZE AND DONE BY HAND. MARKINGS FADED.
RUNWAY 9  RUNWAY 27
Latitude: 41-36.198333N41-36.183500N
Longitude: 082-41.344500W082-40.862000W
Elevation: 598.0 ft.597.0 ft.
Gradient: 0.3%0.3%
Traffic pattern: leftleft
Runway heading: 099 magnetic, 092 true279 magnetic, 272 true
Markings: NSTD, in fair conditionNSTD, in fair condition
Runway end identifier lights: nono
Touchdown point: yes, no lightsyes, no lights
Obstructions: 44 ft. trees, 400 ft. from runway, 140 ft. right of centerline, 4:1 slope to clear
10 FT RD 12 FT FM RY END 125 FT L&R; 11 FT SIGN 0 FT FM 87 FT RT.
none

Airport Ownership and Management from official FAA records

Ownership: Publicly-owned
Owner: VILLAGE OF KELLEYS ISLAND
121 ADDISON ST. BOX 469
KELLEYS ISLAND, OH 43438
Phone (419) 745-2535
Manager: ARDEN COOPER
121 ADDISON ST. BOX 469
KELLEYS ISLAND, OH 43438
Phone (330) 495-0084

Airport Operational Statistics

Aircraft based on the field: 5
Single engine airplanes: 5
    
Aircraft operations: avg 70/day *
37% transient general aviation
34% air taxi
29% local general aviation
* for 12-month period ending 31 December 2015

Additional Remarks

DEER ON AND INVOF ARPT.

Instrument Procedures

There are no published instrument procedures at 89D.

Some nearby airports with instrument procedures:

KPCW - Erie-Ottawa International Airport (10 nm SW)
5A1 - Norwalk-Huron County Airport (22 nm S)
S24 - Sandusky County Regional Airport (24 nm SW)
14G - Fremont Airport (27 nm SW)
KLPR - Lorain County Regional Airport (28 nm SE)
 
Loc | Ops | Rwys | IFR | FBO | Links
Com | Nav | Svcs | Stats | Notes


 
Area around 89D (Kelleys Island Land Field Airport)
 
Road maps at: MapQuest Bing Google
 
Aerial photo
WARNING: Photo may not be current or correct
Aerial photo of 89D (Kelleys Island Land Field Airport)
Do you have a better or more recent aerial photo of Kelleys Island Land Field Airport that you would like to share? If so, please send us your photo.

 
Sectional chart

 
Airport distance calculator
Flying to Kelleys Island Land Field Airport? Find the distance to fly.

From to 89D

Sunrise and sunset
Times for 22-Jan-2018
 Local
(UTC-5)
 Zulu
(UTC)
Morning civil twilight07:2212:22
Sunrise07:5212:52
Sunset17:3322:33
Evening civil twilight18:0323:03

Current date and time
Zulu (UTC)  22-Jan-2018 11:17:58
Local (UTC-5)  22-Jan-2018 06:17:58
 
METAR
KPCW 
10nm SW 
221055Z AUTO 19010KT 10SM BKN048 OVC060 09/08 A2988 RMK AO2
TAF
KCLE 
39nm E 
220956Z 2210/2312 18010KT P6SM VCSH OVC035 FM221700 18015G25KT P6SM BKN035 BKN080 FM222200 18012KT 4SM -RA BR OVC015 FM230300 20012KT 5SM BR OVC012
CYQG 
42nm N 
220748Z 2207/2306 05005KT 1/4SM -DZ FG OVC001 TEMPO 2207/2210 1/2SM -RA FG OVC002 FM221000 09005KT 1/2SM -RA FG OVC002 TEMPO 2210/2212 1/4SM -DZ FG FM221500 17010KT 11/2SM BR SCT030 OVC070 FM221700 18010KT P6SM SCT030 BKN070 FM222200 18010KT 4SM -RA BR SCT006 OVC012 FM230000 18010KT 11/2SM -RA BR OVC004 PROB30 2300/2303 VRB15G25KT 1SM +TSRA BR BKN004 OVC010CB FM230500 17008KT 3SM BR BKN040 RMK NXT FCST BY 221200Z
KDTW 
48nm NW 
220714Z 2207/2312 VRB04KT 1/2SM -RA FG VV003 TEMPO 2207/2209 06004KT 1/4SM -RA FG VV003 FM220900 09007KT 1/2SM RA FG VV003 FM221300 13007KT 1SM -SHRA BR OVC004 FM221600 18010KT 5SM BR OVC060 FM222300 18010KT 2SM -SHRA BR OVC008
KMFD 
48nm S 
220904Z 2209/2306 18008KT P6SM OVC035 TEMPO 2209/2212 3SM -SHRA BR OVC020 FM221200 18010KT P6SM BKN040 OVC100 WS020/21040KT FM222100 18014G22KT 3SM -RA BR OVC012
NOTAMs
Click for the latest NOTAMs
NOTAMs are issued by the DoD/FAA and will open in a separate window not controlled by AirNav.

 

 
 

Would you like to see your business listed on this page?

 If your business provides an interesting product or service to pilots, flight crews, aircraft, or users of the Kelleys Island Land Field Airport, you should consider listing it here.  To start the listing process, click on the button below
 
Add a business
 

Other Pages about Kelleys Island Land Field Airport

Update a link
 
Copyright © AirNav, LLC. All rights reserved. Privacy Policy  Contact